Flight Briefing for CPX256

Departure Arrival
Princess Juliana International Airport (TNCM)
Click to view FAA NOTAMS
Grantley Adams International Airport (TBPB)
Click to view FAA NOTAMS
Departure Time Arrival Time
N/A N/A
Aircraft Distance
B767-300BDSF 365nm
Departure METAR Arrival METAR
TNCM 221100Z 10008KT 060V140 9999 FEW018 25/20 Q1017 A3003 NOSIG TBPB 221100Z 09015KT 9999 4000SW -SHRA VCSH BKN012 BKN034 25/22 Q1015 NOSIG
Suggested Route
PJM B520 ANU UA632 BGI


View recent IFR Routes data
Notes



Charts and Procedures

Charts for TNCM
No chart available
Charts for TBPB
No chart available

Windy.com Weather Map